Location: Gro�sch�nbrunn
(49.5760°N, 11.8868°E)
Time: 02:47:03
(UTC+00:00)

NOSS 2-2 (C) - Pass Details

Date: 18 September 2020
Orbit: 468 x 1740 km, 63.3° (Epoch: 19 October)

Event Time Altitude Azimuth Distance (km) Brightness Sun altitude
Rises 18:15:39 0° 196° (SSW) 2,505 6.7 -10.0°
Reaches altitude 10° 18:17:51 10° 186° (S) 1,623 5.6 -10.3°
Maximum altitude 18:21:00 32° 121° (ESE) 849 3.8 -10.8°
Drops below altitude 10° 18:24:27 10° 57° (ENE) 1,788 5.5 -11.4°
Sets 18:26:59 0° 48° (NE) 2,811 6.6 -11.8°
